GSAT-10

Last updated on Oct. 23, 2020, 5:56 a.m. UTC

1 38779U 12051B   20296.74355061 -.00000180  00000-0  00000-0 0  9993
2 38779   0.0636  87.8680 0001770 150.7937 143.6730  1.00271997 29422
UTC
Height (km)
Latitude
Longitude
Inclination
Orbital Period
UTC large
Height (km)
Speed (km/s)
/
Latitude / Longitude
Inclination (degrees)
Orbital Period (minutes)
Azimuth
Elevation
Range (km)
Doppler Factor
iOS Compass Heading
iOS Angle

Next 30 passes for location: Hong Kong

Rise time Rise Azimuth (degrees) Set time Set Azimuth (degrees) Duration Max altitude (degrees)

No matching passes for this satellites